CW9352 Weather Reports


Display with metric or nautical units.
time (UTC)temp
F
wind
direction
speed
MPH
gust
MPH
rain 1hr
in
rain 24hr
in
rain mn
in
humidity
%
barometer
mb
20260906024517 83 0.0 0.0 0.00 0.00 0.00 84 1013.9
20260906023517 84 0.0 0.0 0.00 0.00 0.00 83 1013.8
20260906022517 84 280 0.0 1.0 0.00 0.00 0.00 83 1013.4
20260906021517 84 283 0.0 2.0 0.00 0.00 0.00 83 1013.3
20260906020516 84 280 1.0 4.0 0.00 0.00 0.00 82 1013.5
20260906015517 84 276 1.0 4.0 0.00 0.00 0.00 82 1013.5
20260906014517 84 281 1.0 3.0 0.00 0.00 0.00 81 1013.5
20260906013518 84 276 0.0 5.0 0.00 0.00 0.00 81 1013.3
20260906012517 85 286 1.0 4.0 0.00 0.00 0.00 81 1013.1
20260906011516 85 280 0.0 3.0 0.00 0.00 0.00 81 1013.2
20260906010516 85 275 1.0 5.0 0.00 0.00 0.00 81 1013.2
20260906005516 85 279 1.0 7.0 0.00 0.00 0.00 81 1013.2
20260906004516 85 282 1.0 5.0 0.00 0.00 0.00 80 1013.3
20260906003516 85 282 1.0 4.0 0.00 0.00 0.00 81 1013.2
20260906002517 85 280 1.0 3.0 0.00 0.00 0.00 81 1013.2
20260906001516 85 275 0.0 2.0 0.00 0.00 0.00 80 1013.2
20260906000516 85 288 0.0 5.0 0.00 0.00 0.00 80 1013.2
20260905235537 86 282 1.0 5.0 0.00 0.00 0.00 79 1013.2
20260905234517 86 284 0.0 5.0 0.00 0.00 0.00 78 1013.1
20260905233516 86 279 1.0 4.0 0.00 0.00 0.00 78 1013.0
20260905232516 86 281 1.0 5.0 0.00 0.00 0.00 77 1013.2
20260905231516 87 274 0.0 4.0 0.00 0.00 0.00 76 1013.0
20260905230556 87 285 1.0 4.0 0.00 0.00 0.00 76 1013.1
20260905225516 88 270 1.0 6.0 0.00 0.00 0.00 75 1013.2
20260905224516 88 285 1.0 5.0 0.00 0.00 0.00 74 1013.3
20260905223516 89 281 1.0 6.0 0.00 0.00 0.00 73 1013.3
20260905222516 90 276 1.0 5.0 0.00 0.00 0.00 73 1013.3
20260905221536 89 276 1.0 5.0 0.00 0.00 0.00 73 1013.4
20260905220516 90 273 1.0 7.0 0.00 0.00 0.00 73 1013.5
20260905215516 89 267 1.0 5.0 0.00 0.00 0.00 73 1013.4
20260905214516 89 274 1.0 7.0 0.00 0.00 0.00 74 1013.5
20260905213516 89 276 2.0 6.0 0.00 0.00 0.00 72 1013.7
20260905212516 90 267 1.0 6.0 0.00 0.00 0.00 74 1013.8
20260905211516 90 275 1.0 3.0 0.00 0.00 0.00 73 1013.8
20260905210536 90 277 2.0 7.0 0.00 0.00 0.00 73 1013.7
20260905205516 90 267 2.0 7.0 0.00 0.00 0.00 72 1013.6
20260905204516 91 270 2.0 7.0 0.00 0.00 0.00 71 1013.7
20260905203516 92 265 2.0 4.0 0.00 0.00 0.00 71 1013.7
20260905202536 91 273 2.0 6.0 0.00 0.00 0.00 72 1013.6
20260905201516 91 267 1.0 7.0 0.00 0.00 0.00 72 1013.7
20260905200516 91 271 2.0 7.0 0.00 0.00 0.00 71 1013.8
20260905195516 91 277 1.0 6.0 0.00 0.00 0.00 73 1014.0
20260905194516 90 280 2.0 6.0 0.00 0.00 0.00 72 1014.1
20260905193516 90 281 2.0 7.0 0.00 0.00 0.00 73 1014.4
20260905192536 90 278 2.0 7.0 0.00 0.00 0.00 72 1014.5
20260905191516 91 281 1.0 4.0 0.00 0.00 0.00 71 1014.8
20260905190536 92 265 1.0 4.0 0.00 0.00 0.00 69 1014.8
20260905185516 92 220 1.0 6.0 0.00 0.00 0.00 70 1014.9
20260905184517 91 270 0.0 5.0 0.00 0.00 0.00 72 1015.0
20260905183536 92 263 1.0 7.0 0.00 0.00 0.00 71 1015.2
20260905182516 92 286 1.0 7.0 0.00 0.00 0.00 71 1015.3
20260905181536 92 272 1.0 8.0 0.00 0.00 0.00 72 1015.3
20260905180516 92 272 1.0 6.0 0.00 0.00 0.00 72 1015.3
20260905175536 92 266 0.0 4.0 0.00 0.00 0.00 71 1015.5
20260905174516 92 273 1.0 4.0 0.00 0.00 0.00 71 1015.5
20260905173516 92 254 1.0 4.0 0.00 0.01 0.00 70 1015.5
20260905172516 92 281 0.0 2.0 0.00 0.01 0.00 73 1015.6
20260905172016 91 248 1.0 5.0 0.00 0.01 0.00 73 1015.6
20260905171016 91 270 1.0 6.0 0.00 0.01 0.00 74 1015.6
20260905170016 91 263 1.0 7.0 0.00 0.01 0.00 73 1015.8
20260905165015 91 265 1.0 4.0 0.00 0.01 0.00 74 1015.8
20260905164057 90 266 1.0 6.0 0.00 0.01 0.00 75 1015.7
20260905163017 90 257 1.0 4.0 0.00 0.01 0.00 75 1015.9
20260905162016 91 240 0.0 4.0 0.00 0.01 0.00 72 1016.0
20260905161016 91 265 1.0 5.0 0.00 0.01 0.00 73 1016.0
20260905160016 91 253 0.0 5.0 0.00 0.01 0.00 74 1016.1
20260905155016 91 259 0.0 4.0 0.00 0.01 0.00 73 1015.8
20260905154036 90 272 0.0 3.0 0.00 0.01 0.00 75 1015.8
20260905153036 90 272 0.0 4.0 0.00 0.01 0.00 74 1015.8
20260905152016 90 273 0.0 3.0 0.00 0.01 0.00 74 1015.8
20260905151016 90 277 0.0 3.0 0.00 0.01 0.00 73 1015.7
20260905150016 90 283 0.0 4.0 0.00 0.01 0.00 75 1015.8
20260905145016 89 271 1.0 4.0 0.00 0.01 0.00 76 1015.9
20260905144015 89 255 0.0 1.0 0.00 0.01 0.00 76 1015.9
20260905143036 88 0.0 1.0 0.00 0.01 0.00 78 1015.8
20260905142015 87 0.0 1.0 0.00 0.01 0.00 80 1015.8
20260905141015 87 0.0 1.0 0.00 0.01 0.00 80 1015.8
20260905140015 88 8 0.0 1.0 0.00 0.01 0.00 78 1015.7
20260905135018 88 338 0.0 1.0 0.00 0.01 0.00 81 1015.5
20260905134015 87 0.0 0.0 0.00 0.01 0.00 83 1015.5
20260905133016 87 0.0 0.0 0.00 0.01 0.00 81 1015.5
20260905132016 88 0.0 0.0 0.00 0.01 0.00 81 1015.4
20260905131035 86 0.0 0.0 0.00 0.01 0.00 85 1015.3
20260905130035 85 32 0.0 1.0 0.00 0.01 0.00 90 1015.3
20260905125016 82 13 0.0 1.0 0.00 0.01 0.00 96 1015.4
20260905124016 80 0.0 0.0 0.00 0.01 0.00 98 1015.3
20260905123016 78 0.0 0.0 0.00 0.01 0.00 98 1015.2
20260905122015 77 0.0 0.0 0.00 0.01 0.00 98 1015.3
20260905121015 77 0.0 0.0 0.00 0.01 0.00 97 1015.1
20260905120035 77 0.0 0.0 0.00 0.01 0.00 97 1015.0
20260905115036 77 0.0 0.0 0.00 0.01 0.00 97 1015.0
20260905114035 77 0.0 0.0 0.00 0.01 0.00 97 1015.0
20260905113015 77 0.0 0.0 0.00 0.01 0.00 97 1014.9
20260905112015 77 0.0 0.0 0.00 0.01 0.00 97 1014.9
20260905111015 77 0.0 0.0 0.00 0.01 0.00 97 1014.8
20260905110015 77 0.0 0.0 0.00 0.01 0.00 97 1014.7
20260905105015 77 0.0 0.0 0.00 0.01 0.00 97 1014.8
20260905104015 77 0.0 0.0 0.00 0.01 0.00 97 1014.7
20260905103015 77 0.0 0.0 0.00 0.01 0.00 96 1014.7
20260905102017 77 0.0 0.0 0.00 0.01 0.00 96 1014.7
20260905101017 77 0.0 0.0 0.00 0.01 0.00 96 1014.5
20260905100015 77 0.0 0.0 0.00 0.01 0.00 95 1014.5
20260905095016 78 0.0 0.0 0.00 0.01 0.00 95 1014.5
20260905094015 78 0.0 0.0 0.00 0.01 0.00 95 1014.5
20260905093015 78 0.0 0.0 0.00 0.01 0.00 94 1014.5
20260905092015 78 0.0 0.0 0.00 0.01 0.00 94 1014.6
20260905091015 79 0.0 0.0 0.00 0.01 0.00 93 1014.5
20260905090015 79 0.0 0.0 0.00 0.01 0.00 92 1014.5
20260905085015 80 0.0 0.0 0.00 0.01 0.00 90 1014.6
20260905084015 81 0.0 1.0 0.00 0.01 0.00 88 1014.4
20260905083015 82 0.0 1.0 0.00 0.01 0.00 89 1014.4
20260905082015 82 237 0.0 1.0 0.00 0.01 0.00 89 1014.3
20260905081015 82 338 0.0 1.0 0.00 0.01 0.00 89 1014.3
20260905080015 82 285 0.0 1.0 0.00 0.01 0.00 89 1014.3
20260905075035 81 268 0.0 1.0 0.00 0.01 0.00 91 1014.3
20260905074035 81 308 0.0 1.0 0.00 0.01 0.00 91 1014.3
20260905073015 82 307 0.0 1.0 0.00 0.01 0.00 90 1014.3
20260905072017 82 308 0.0 1.0 0.00 0.01 0.00 90 1014.2
20260905071015 82 0.0 0.0 0.00 0.01 0.00 90 1014.2
20260905070055 82 0.0 0.0 0.00 0.01 0.00 89 1014.2
20260905065015 82 0.0 0.0 0.00 0.01 0.00 89 1014.2
20260905064015 82 294 0.0 1.0 0.00 0.01 0.00 88 1014.1
20260905063015 82 247 0.0 1.0 0.00 0.01 0.00 88 1014.2
20260905062015 82 273 0.0 1.0 0.00 0.01 0.00 88 1014.3
20260905061015 82 212 0.0 1.0 0.00 0.01 0.00 88 1014.2
20260905060017 82 212 0.0 1.0 0.00 0.01 0.00 88 1014.3
20260905055037 82 223 0.0 2.0 0.00 0.01 0.00 88 1014.4
20260905054017 82 255 0.0 1.0 0.00 0.01 0.00 87 1014.4
20260905053017 82 0.0 0.0 0.00 0.01 0.00 87 1014.7
20260905052017 82 255 0.0 1.0 0.00 0.01 0.00 88 1014.7
20260905051017 82 287 0.0 2.0 0.00 0.01 0.00 88 1014.7
20260905050018 82 0.0 1.0 0.00 0.01 0.00 89 1014.8
20260905045017 81 246 0.0 2.0 0.00 0.01 0.01 91 1014.9
20260905044017 81 231 0.0 1.0 0.00 0.02 0.01 93 1015.0
20260905043017 81 0.0 0.0 0.00 0.02 0.01 92 1015.1
20260905042017 81 0.0 0.0 0.00 0.04 0.01 92 1015.1
20260905041017 81 0.0 0.0 0.00 0.06 0.01 92 1015.2
20260905040037 81 0.0 0.0 0.00 0.09 0.01 91 1015.3
20260905035037 82 0.0 0.0 0.00 0.14 0.01 90 1015.3
20260905034037 82 0.0 0.0 0.00 0.15 0.01 90 1015.5
20260905033020 82 132 0.0 1.0 0.00 0.16 0.01 91 1015.5
20260905032018 82 0.0 0.0 0.00 0.17 0.01 90 1015.5
20260905031036 83 128 0.0 1.0 0.00 0.17 0.01 90 1015.4
20260905030017 83 129 0.0 1.0 0.00 0.17 0.01 89 1015.5